カタログに戻る

STARLINK-31245

運用中通信VLEO
NORAD 58891·PAYLOAD·🇺🇸 United States

打ち上げ Jan 29, 2024 から Vandenberg Space Force Base

Loading…

次のパス (今後24時間)

TLE

最新Source: CelesTrak SupGP

元期: Sep 14, 2026, 20:55 UTC

1 58891C 24020R   26257.87201389 -.00062204  00000+0 -18382-2 0  2575
2 58891  53.1562 118.3516 0001185  86.5800  49.6328 15.34414787    19

AllMySatでSTARLINK-31245をリアルタイム追跡

Download on the App Store